Temp
4 4 4 4 4 4 4 4 4 4 4 4 4 4 4 4 4 4 4 4 4 4 4 4 4 5 5 5 5 5 5 5 6 6 6 6 6 6 6 6 6 6 7 7 7 8 8 8 7 7 7 7 7 7 8 8 8 8 8 8 8 8 8 8 8 8 9 9 9
4 4 4 4 4 4 4 4 4 4 4 4 4 4 4 4 3 4 4 4 4 4 4 4 4 4 4 4 5 5 5 5 5 5 5 6 6 5 5 5 6 6 6 6 7 7 7 8 7 7 7 7 7 7 7 8 8 8 8 8 8 8 8 8 7 8 8 8 9
4 4 4 4 4 4 4 4 4 4 4 3 3 3 3 3 3 3 3 3 3 4 4 4 4 4 4 4 4 4 4 4 5 5 5 5 5 5 5 5 5 5 6 6 6 7 7 7 7 7 7 7 7 7 7 8 8 8 8 8 8 8 8 8 7 7 7 8 8
4 4 4 4 4 4 4 4 4 3 3 3 3 3 3 3 3 3 3 3 3 3 3 3 4 4 4 4 4 4 4 4 4 4 4 5 5 5 5 5 5 5 5 5 6 6 6 7 7 7 7 7 7 6 7 7 8 8 8 8 8 8 8 7 7 7 7 7 7
4 4 4 4 4 4 4 3 3 3 3 3 3 3 3 3 3 3 3 3 3 3 3 3 3 3 4 4 4 4 4 4 4 4 4 4 4 4 4 4 4 4 4 5 5 5 6 6 6 6 6 7 7 6 6 7 7 7 7 7 7 7 7 7 7 7 7 7 7
4 4 4 3 3 3 3 3 3 3 3 3 3 3 3 3 3 3 3 3 3 3 3 3 3 3 3 3 3 4 4 4 4 4 4 4 4 4 4 4 4 4 4 4 4 5 5 5 5 6 6 6 6 6 6 6 7 7 7 7 7 7 7 7 7 7 7 7 7
4 3 3 3 3 3 3 3 3 3 3 3 3 3 3 3 3 3 3 3 3 3 3 3 3 3 3 3 3 3 3 3 4 4 4 4 4 4 4 4 4 4 4 3 4 4 4 5 5 5 5 6 6 6 6 6 6 6 7 7 7 7 7 7 7 7 7 7 7
3 3 3 3 3 3 3 3 3 3 3 3 3 3 3 3 3 3 3 2 2 2 2 2 2 3 3 3 3 3 3 3 3 4 4 4 4 4 4 4 4 4 3 3 3 3 3 4 4 4 4 5 5 6 6 6 6 6 6 7 7 7 7 7 7 7 7 7 7
3 3 3 3 3 3 3 3 3 3 3 3 3 3 3 3 3 3 2 2 2 2 2 2 2 2 2 2 2 3 3 3 3 3 3 4 4 4 4 4 3 3 3 3 3 3 3 3 3 3 3 4 4 5 6 6 5 5 6 6 7 7 7 7 7 7 7 7 7
3 3 3 3 3 3 3 3 3 3 3 3 3 3 3 3 3 2 2 2 2 2 2 2 2 2 2 2 2 2 2 3 3 3 3 3 4 4 4 4 4 3 3 3 3 2 2 2 3 3 3 3 4 4 5 5 5 5 5 6 6 7 7 7 7 7 7 7 6
3 3 3 3 3 3 3 3 3 3 3 3 3 3 3 3 2 2 2 2 2 2 2 1 1 1 1 2 2 2 2 2 2 3 3 3 3 4 4 4 4 3 3 3 3 2 2 2 2 2 2 3 3 4 4 4 4 5 5 5 6 6 6 6 6 6 6 6 6
2 2 2 2 2 2 2 2 2 2 2 2 2 2 2 2 2 2 2 2 1 1 1 1 1 1 1 1 1 1 2 2 2 2 3 3 3 3 3 4 3 3 3 3 3 2 2 2 2 2 2 3 3 3 4 4 4 4 5 5 5 6 6 6 6 6 6 6 6
2 2 2 2 2 2 2 2 2 2 2 2 2 2 2 2 2 2 2 1 1 1 1 1 1 1 1 1 1 1 1 1 1 2 2 2 2 3 3 3 3 3 3 3 3 2 2 2 2 2 2 3 3 3 3 4 4 4 4 5 5 5 6 6 6 6 6 6 6
2 2 2 2 2 2 2 2 2 2 2 2 2 2 2 2 2 2 1 1 1 0 0 0 0 0 0 0 0 0 1 1 1 1 1 2 2 2 2 2 3 3 2 2 2 2 2 2 2 2 2 3 3 3 3 3 4 4 4 5 5 5 5 6 6 6 6 6 6
2 2 2 2 2 2 2 2 2 2 2 2 2 2 2 2 1 1 1 1 0 0 0 0 0 0 0 0 0 0 0 0 0 0 1 1 1 1 2 2 2 2 2 2 2 2 2 2 2 2 2 3 3 3 3 3 3 4 4 4 5 5 5 5 5 6 6 6 6
2 2 2 2 2 2 2 2 2 2 2 2 1 1 1 1 1 1 1 0 0 -0 -0 -0 -0 -0 -0 -0 -0 -0 -0 -0 -0 -0 -0 0 0 1 1 1 2 2 2 2 2 2 2 2 2 2 2 3 3 3 3 3 3 4 4 4 4 5 5 5 5 5 6 6 6
2 2 2 2 2 2 2 2 1 1 1 1 1 1 1 1 1 1 0 0 -0 -0 -1 -1 -1 -1 -1 -1 -0 -0 -1 -1 -1 -1 -1 -1 -0 -0 0 1 1 1 2 2 2 2 2 2 2 2 2 3 3 3 3 3 3 3 4 4 4 4 5 5 5 5 5 5 5
2 2 2 2 2 2 1 1 1 1 1 1 1 1 1 0 0 0 -0 -0 -1 -1 -1 -1 -1 -1 -1 -1 -1 -1 -1 -1 -1 -1 -1 -1 -1 -1 -0 0 0 1 1 2 2 2 2 2 2 2 2 2 3 3 3 3 3 3 3 3 4 4 4 5 5 5 5 5 5
2 2 2 1 1 1 1 1 1 1 1 0 0 0 -0 -0 -0 -0 -1 -1 -1 -1 -1 -1 -1 -1 -1 -1 -1 -1 -2 -2 -2 -2 -1 -1 -1 -1 -1 -0 0 0 1 1 2 2 2 2 2 2 2 2 2 2 2 3 3 3 3 3 3 3 4 4 5 5 5 5 5
1 1 1 1 1 1 1 1 1 0 0 -0 -0 -0 -1 -1 -1 -1 -1 -1 -1 -1 -2 -2 -2 -2 -2 -2 -2 -2 -2 -2 -2 -2 -2 -1 -1 -1 -1 -1 -0 -0 0 1 1 1 1 2 2 2 2 2 2 2 2 2 2 3 3 3 3 3 3 3 4 4 4 4 4
1 1 1 1 1 1 1 0 0 -0 -0 -1 -1 -1 -1 -1 -1 -1 -1 -1 -2 -2 -2 -2 -2 -2 -2 -2 -2 -2 -2 -2 -2 -2 -2 -2 -2 -1 -1 -1 -1 -0 -0 0 1 1 1 2 2 2 2 2 2 2 2 2 2 2 2 2 2 3 3 3 3 3 3 3 3
1 1 1 1 1 0 0 -0 -0 -1 -1 -1 -1 -1 -1 -1 -2 -2 -2 -2 -2 -2 -2 -2 -2 -2 -2 -2 -2 -2 -2 -2 -2 -2 -2 -2 -2 -1 -1 -1 -1 -1 -0 0 1 1 1 2 2 2 2 2 2 2 2 2 2 2 2 2 2 2 2 2 2 2 2 2 2
1 1 0 0 0 -0 -0 -1 -1 -1 -1 -1 -1 -1 -2 -2 -2 -2 -2 -2 -2 -2 -2 -2 -2 -2 -3 -3 -3 -3 -3 -3 -2 -2 -2 -2 -2 -2 -2 -1 -1 -1 -1 0 0 1 1 1 2 2 2 2 1 1 1 1 2 2 1 1 2 2 2 2 2 2 2 2 2
0 0 0 -0 -0 -1 -1 -1 -1 -1 -1 -1 -2 -2 -2 -2 -2 -2 -2 -2 -3 -3 -3 -3 -3 -3 -3 -3 -3 -3 -3 -3 -3 -3 -2 -2 -2 -2 -2 -1 -1 -1 -1 -0 0 1 1 1 1 1 1 1 1 1 1 1 1 1 1 1 1 1 1 1 1 1 1 1 1
0 -0 -0 -1 -1 -1 -1 -1 -1 -1 -2 -2 -2 -2 -2 -2 -2 -3 -3 -3 -3 -3 -3 -3 -3 -3 -3 -3 -3 -3 -3 -3 -3 -3 -3 -2 -2 -2 -2 -1 -1 -1 -1 -1 -0 0 1 1 1 1 1 1 1 1 1 1 1 1 1 1 1 1 0 0 0 0 0 0 0
-0 -0 -1 -1 -1 -1 -1 -1 -2 -2 -2 -2 -2 -2 -2 -3 -3 -3 -3 -3 -3 -3 -3 -3 -3 -3 -3 -3 -3 -3 -3 -3 -3 -3 -3 -3 -3 -2 -2 -2 -1 -1 -1 -1 -0 0 1 1 1 1 1 1 1 1 0 0 0 0 0 0 0 0 0 -0 -0 -0 -0 -0 -0
-0 -1 -1 -1 -1 -1 -2 -2 -2 -2 -2 -2 -2 -3 -3 -3 -3 -3 -3 -3 -3 -3 -3 -3 -3 -4 -4 -4 -4 -4 -4 -4 -3 -3 -3 -3 -3 -3 -2 -2 -2 -1 -1 -1 -0 0 1 1 1 1 1 1 1 0 0 0 -0 -0 -0 -0 -0 -0 -0 -0 -0 -1 -1 -1 -1
-1 -1 -1 -1 -1 -2 -2 -2 -2 -2 -2 -3 -3 -3 -3 -3 -3 -3 -3 -4 -4 -4 -4 -4 -4 -4 -4 -4 -4 -4 -4 -4 -4 -4 -4 -3 -3 -3 -3 -2 -2 -1 -1 -1 -0 0 1 1 1 1 1 1 1 0 0 0 -0 -0 -1 -1 -1 -1 -1 -1 -1 -1 -1 -1 -1
-1 -1 -1 -1 -2 -2 -2 -2 -2 -3 -3 -3 -3 -3 -3 -3 -4 -4 -4 -4 -4 -4 -4 -4 -4 -4 -4 -4 -4 -4 -4 -4 -4 -4 -4 -4 -3 -3 -3 -2 -2 -1 -1 -0 0 0 1 1 1 1 1 1 0 0 -0 -0 -0 -1 -1 -1 -1 -1 -1 -1 -1 -1 -1 -2 -2
-1 -2 -2 -2 -2 -2 -3 -3 -3 -3 -3 -3 -3 -4 -4 -4 -4 -4 -4 -4 -4 -4 -4 -4 -4 -4 -4 -4 -4 -4 -4 -4 -4 -4 -4 -3 -3 -3 -2 -2 -1 -1 -1 0 1 1 1 1 1 1 1 0 -0 -0 -0 -1 -1 -1 -1 -2 -2 -2 -2 -2 -2 -2 -2 -2 -2
-2 -2 -2 -2 -3 -3 -3 -3 -3 -3 -4 -4 -4 -4 -4 -4 -4 -4 -4 -4 -4 -4 -4 -4 -4 -4 -5 -5 -5 -4 -4 -4 -4 -4 -4 -3 -3 -2 -2 -1 -1 -0 -0 0 1 1 1 1 1 1 0 -0 -0 -1 -1 -1 -1 -1 -2 -2 -2 -2 -2 -2 -2 -2 -2 -2 -2
-2 -3 -3 -3 -3 -3 -3 -4 -4 -4 -4 -4 -4 -4 -4 -4 -4 -4 -5 -5 -5 -5 -5 -5 -5 -5 -5 -5 -5 -4 -4 -4 -4 -4 -3 -3 -3 -2 -1 -1 -0 -0 0 1 1 1 1 1 1 0 -0 -1 -1 -1 -1 -1 -2 -2 -2 -2 -2 -2 -2 -2 -2 -2 -2 -2 -2
-3 -3 -3 -3 -4 -4 -4 -4 -4 -4 -5 -5 -5 -5 -5 -5 -5 -5 -5 -5 -5 -5 -5 -5 -5 -5 -5 -5 -5 -4 -4 -4 -4 -3 -3 -3 -2 -2 -1 -1 -0 0 0 1 1 1 0 0 0 -0 -1 -1 -1 -2 -2 -2 -2 -2 -2 -2 -2 -2 -2 -2 -2 -2 -2 -2 -1
-3 -4 -4 -4 -4 -4 -5 -5 -5 -5 -5 -5 -5 -5 -5 -5 -5 -5 -5 -5 -5 -5 -5 -5 -5 -5 -5 -5 -5 -4 -4 -4 -4 -3 -3 -3 -2 -2 -1 -1 -0 0 0 0 0 0 -0 -0 -0 -1 -1 -2 -2 -2 -2 -2 -2 -2 -2 -2 -3 -3 -3 -3 -3 -2 -2 -2 -2
-4 -4 -4 -5 -5 -5 -5 -5 -5 -5 -5 -5 -5 -5 -5 -5 -5 -5 -5 -5 -5 -5 -5 -5 -5 -5 -5 -5 -5 -4 -4 -4 -4 -3 -3 -3 -2 -2 -1 -1 -0 -0 -0 -0 -0 -0 -0 -1 -1 -1 -2 -2 -2 -2 -2 -2 -2 -2 -3 -3 -3 -3 -3 -3 -3 -3 -2 -2 -2
-5 -5 -5 -5 -5 -5 -6 -6 -6 -6 -6 -6 -6 -6 -6 -6 -6 -6 -6 -6 -5 -5 -5 -5 -5 -5 -5 -5 -4 -4 -4 -4 -4 -3 -3 -2 -2 -2 -1 -1 -1 -1 -1 -1 -1 -1 -1 -1 -1 -1 -2 -2 -2 -2 -2 -2 -3 -3 -3 -3 -4 -4 -4 -4 -3 -3 -3 -2 -2
-5 -5 -6 -6 -6 -6 -6 -6 -6 -6 -6 -6 -6 -6 -6 -6 -6 -6 -6 -6 -6 -6 -5 -5 -5 -5 -5 -5 -4 -4 -4 -4 -3 -3 -3 -2 -2 -1 -1 -1 -1 -1 -1 -1 -1 -1 -1 -1 -1 -2 -2 -2 -2 -2 -2 -3 -3 -3 -3 -4 -4 -4 -4 -4 -4 -3 -3 -2 -2
-6 -6 -6 -6 -6 -6 -7 -7 -7 -7 -6 -6 -6 -6 -6 -6 -6 -6 -6 -6 -6 -6 -6 -5 -5 -5 -5 -4 -4 -4 -4 -3 -3 -3 -2 -2 -1 -1 -1 -1 -1 -1 -1 -1 -1 -1 -1 -1 -2 -2 -2 -2 -2 -2 -3 -3 -3 -4 -4 -4 -4 -4 -4 -4 -4 -3 -3 -2 -1
-7 -7 -7 -7 -7 -7 -7 -7 -7 -7 -7 -7 -7 -7 -7 -6 -6 -6 -6 -6 -6 -6 -6 -5 -5 -5 -5 -4 -4 -4 -3 -3 -3 -3 -2 -2 -1 -1 -1 -1 -1 -1 -1 -1 -1 -1 -1 -1 -2 -2 -2 -2 -2 -2 -3 -3 -3 -4 -4 -4 -4 -4 -4 -4 -4 -3 -3 -2 -1
-7 -7 -7 -7 -7 -7 -7 -7 -7 -7 -7 -7 -7 -7 -7 -7 -7 -6 -6 -6 -6 -6 -6 -5 -5 -5 -4 -4 -4 -4 -3 -3 -3 -2 -2 -1 -1 -1 -1 -1 -1 -1 -1 -1 -1 -1 -1 -2 -2 -2 -2 -2 -2 -2 -3 -3 -4 -4 -4 -4 -4 -4 -4 -4 -4 -3 -3 -2 -1
-8 -8 -8 -8 -8 -8 -8 -8 -8 -7 -7 -7 -7 -7 -7 -7 -7 -7 -6 -6 -6 -6 -6 -5 -5 -5 -4 -4 -4 -4 -4 -3 -3 -2 -1 -1 -1 -1 -1 -1 -1 -1 -1 -1 -1 -2 -2 -2 -2 -2 -2 -2 -2 -3 -3 -3 -4 -4 -4 -4 -4 -5 -5 -5 -4 -4 -3 -2 -2
Height
1467 1466 1465 1464 1463 1462 1461 1460 1459 1458 1457 1456 1455 1454 1453 1452 1451 1450 1449 1448 1447 1446 1445 1444 1443 1442 1441 1440 1440 1440 1439 1439 1438 1438 1437 1437 1436 1435 1433 1432 1432 1431 1431 1429 1429 1429 1429 1429 1428 1427 1426 1426 1427 1427 1427 1428 1429 1430 1429 1429 1427 1427 1427 1428 1429 1431 1433 1434 1435
1466 1465 1464 1463 1462 1461 1460 1459 1458 1457 1456 1455 1454 1452 1452 1450 1449 1448 1447 1446 1446 1445 1444 1442 1442 1441 1439 1438 1438 1437 1437 1436 1436 1435 1435 1434 1433 1432 1431 1430 1429 1429 1428 1427 1427 1426 1426 1426 1425 1425 1423 1423 1423 1423 1424 1424 1426 1427 1427 1426 1425 1425 1424 1425 1426 1428 1429 1431 1432
1465 1464 1463 1462 1461 1460 1459 1457 1456 1455 1454 1453 1452 1451 1450 1448 1447 1446 1445 1444 1443 1442 1442 1441 1440 1439 1438 1437 1436 1436 1435 1434 1433 1432 1432 1431 1431 1430 1429 1427 1427 1426 1425 1425 1424 1423 1422 1422 1422 1421 1421 1420 1420 1420 1420 1421 1422 1423 1423 1423 1423 1423 1422 1422 1422 1424 1426 1427 1428
1463 1462 1462 1461 1460 1459 1457 1456 1455 1454 1452 1451 1450 1449 1448 1447 1445 1444 1443 1442 1441 1440 1439 1438 1437 1437 1436 1435 1434 1433 1433 1432 1431 1430 1429 1428 1428 1427 1426 1425 1424 1423 1422 1422 1421 1420 1420 1419 1418 1417 1417 1417 1417 1417 1417 1417 1418 1419 1419 1420 1421 1420 1419 1419 1419 1421 1422 1423 1425
1462 1461 1460 1459 1458 1457 1456 1455 1453 1452 1451 1450 1448 1447 1446 1445 1444 1442 1441 1440 1439 1438 1437 1436 1435 1434 1433 1432 1432 1431 1430 1429 1429 1428 1427 1426 1425 1424 1423 1422 1421 1420 1419 1419 1418 1417 1417 1416 1415 1414 1413 1413 1413 1413 1413 1413 1414 1415 1415 1416 1417 1417 1417 1416 1416 1417 1419 1421 1422
1460 1459 1458 1457 1456 1455 1454 1453 1452 1451 1449 1448 1447 1446 1444 1443 1442 1441 1440 1438 1437 1436 1435 1434 1432 1431 1430 1430 1429 1428 1427 1427 1426 1425 1424 1423 1422 1421 1420 1419 1418 1417 1416 1415 1414 1414 1414 1413 1412 1410 1410 1410 1409 1409 1410 1410 1411 1411 1411 1413 1414 1414 1414 1414 1413 1414 1416 1417 1419
1458 1457 1456 1455 1454 1453 1452 1451 1450 1449 1447 1446 1445 1444 1442 1442 1440 1439 1438 1437 1435 1434 1432 1432 1430 1429 1428 1427 1426 1425 1424 1423 1423 1422 1421 1420 1419 1418 1417 1416 1415 1414 1413 1412 1411 1410 1410 1410 1409 1407 1406 1406 1406 1406 1406 1407 1407 1407 1408 1409 1410 1411 1412 1412 1412 1412 1412 1413 1415
1456 1455 1454 1453 1452 1451 1450 1449 1448 1447 1446 1444 1443 1442 1441 1440 1438 1437 1436 1435 1433 1432 1431 1430 1428 1427 1426 1425 1424 1422 1422 1421 1420 1419 1418 1417 1417 1416 1415 1413 1412 1411 1410 1409 1407 1406 1406 1406 1405 1404 1403 1402 1402 1402 1403 1404 1404 1404 1404 1405 1406 1408 1409 1410 1409 1409 1409 1410 1412
1455 1453 1452 1451 1450 1449 1448 1447 1446 1445 1444 1442 1441 1440 1439 1438 1437 1435 1434 1433 1432 1430 1429 1427 1426 1425 1424 1423 1422 1420 1419 1418 1417 1416 1415 1415 1414 1413 1412 1411 1410 1408 1407 1406 1405 1403 1402 1402 1402 1401 1400 1400 1399 1398 1399 1401 1401 1401 1401 1401 1402 1404 1406 1407 1407 1407 1407 1408 1410
1453 1452 1451 1449 1448 1447 1446 1445 1444 1443 1442 1440 1439 1438 1437 1436 1434 1433 1432 1430 1429 1428 1427 1425 1424 1423 1422 1420 1419 1418 1417 1416 1415 1414 1413 1412 1411 1410 1409 1408 1407 1406 1404 1403 1402 1400 1399 1399 1398 1397 1397 1397 1397 1396 1396 1397 1398 1399 1399 1399 1399 1400 1403 1404 1404 1403 1404 1406 1407
1451 1450 1449 1447 1446 1445 1444 1443 1442 1440 1439 1438 1437 1435 1434 1433 1432 1431 1429 1428 1426 1425 1423 1422 1421 1420 1419 1417 1416 1415 1414 1413 1412 1412 1410 1409 1408 1407 1407 1406 1404 1403 1402 1400 1399 1398 1397 1395 1395 1395 1394 1394 1394 1394 1394 1394 1395 1396 1397 1396 1396 1397 1399 1400 1400 1400 1401 1402 1404
1449 1448 1447 1446 1444 1443 1442 1441 1439 1438 1437 1435 1434 1433 1432 1431 1429 1428 1427 1425 1423 1422 1420 1419 1418 1417 1416 1414 1413 1412 1411 1410 1410 1409 1407 1407 1405 1404 1404 1402 1402 1400 1399 1397 1397 1395 1394 1393 1392 1392 1392 1392 1392 1391 1392 1392 1393 1393 1394 1393 1393 1394 1395 1396 1397 1397 1398 1399 1400
1447 1446 1444 1443 1442 1441 1440 1438 1437 1436 1434 1433 1432 1430 1429 1428 1427 1425 1424 1422 1420 1418 1417 1416 1415 1413 1412 1411 1410 1409 1408 1407 1406 1405 1404 1403 1402 1401 1400 1399 1398 1397 1396 1394 1393 1392 1392 1390 1390 1390 1389 1389 1388 1388 1389 1390 1391 1391 1391 1391 1391 1391 1391 1392 1392 1393 1394 1395 1396
1445 1444 1442 1441 1440 1438 1437 1436 1434 1433 1432 1430 1429 1428 1427 1425 1424 1422 1421 1419 1417 1415 1414 1412 1411 1410 1409 1407 1406 1405 1404 1403 1402 1401 1400 1399 1398 1397 1396 1395 1394 1393 1392 1391 1390 1390 1389 1388 1387 1387 1386 1386 1385 1386 1386 1387 1388 1389 1389 1388 1387 1387 1388 1388 1389 1389 1390 1391 1392
1442 1441 1440 1439 1437 1436 1435 1433 1432 1430 1429 1427 1426 1425 1424 1422 1421 1419 1418 1416 1414 1412 1411 1409 1407 1406 1405 1404 1402 1401 1400 1399 1398 1397 1396 1395 1394 1393 1392 1391 1390 1389 1388 1387 1387 1386 1386 1386 1385 1385 1384 1383 1382 1382 1383 1384 1385 1386 1386 1385 1385 1384 1385 1386 1386 1386 1386 1387 1389
1440 1439 1437 1436 1435 1433 1432 1431 1429 1428 1426 1425 1423 1422 1421 1419 1418 1417 1415 1412 1411 1409 1407 1406 1404 1403 1402 1400 1399 1397 1396 1395 1394 1392 1392 1391 1390 1389 1388 1387 1387 1386 1385 1384 1383 1382 1382 1382 1382 1382 1381 1380 1379 1380 1380 1381 1382 1383 1383 1383 1382 1382 1382 1382 1383 1383 1382 1383 1385
1438 1436 1435 1434 1432 1431 1429 1428 1427 1425 1424 1422 1421 1419 1418 1417 1415 1413 1412 1410 1407 1406 1404 1402 1401 1400 1398 1397 1395 1394 1392 1391 1390 1389 1387 1387 1386 1385 1384 1383 1383 1382 1382 1381 1380 1379 1379 1379 1379 1379 1378 1377 1377 1377 1377 1378 1379 1380 1380 1380 1380 1379 1379 1378 1379 1380 1380 1381 1382
1435 1434 1432 1431 1429 1428 1427 1425 1424 1422 1421 1419 1418 1416 1415 1413 1412 1410 1408 1407 1405 1403 1401 1399 1397 1396 1395 1393 1392 1391 1389 1388 1387 1385 1384 1383 1382 1381 1380 1380 1379 1379 1378 1378 1377 1376 1376 1376 1376 1376 1375 1374 1374 1374 1374 1375 1376 1377 1378 1378 1378 1377 1377 1376 1376 1377 1377 1378 1379
1432 1431 1430 1428 1427 1425 1424 1422 1421 1419 1417 1416 1414 1413 1411 1410 1408 1407 1405 1403 1402 1400 1398 1396 1394 1393 1391 1390 1388 1387 1386 1385 1383 1382 1380 1379 1378 1377 1376 1376 1375 1375 1374 1374 1373 1372 1372 1372 1373 1373 1372 1371 1371 1371 1372 1372 1373 1374 1375 1375 1375 1375 1374 1374 1373 1374 1374 1375 1376
1430 1428 1427 1426 1424 1422 1421 1419 1418 1416 1414 1413 1411 1409 1408 1406 1405 1403 1402 1400 1398 1397 1395 1393 1391 1389 1387 1386 1385 1383 1382 1381 1380 1378 1377 1375 1374 1373 1372 1372 1371 1371 1370 1370 1369 1369 1368 1368 1369 1369 1369 1368 1368 1368 1369 1370 1371 1372 1372 1373 1373 1373 1372 1372 1371 1371 1372 1372 1373
1427 1426 1424 1423 1422 1420 1418 1416 1415 1413 1411 1409 1408 1406 1404 1402 1401 1400 1398 1396 1395 1394 1392 1390 1388 1386 1384 1382 1381 1380 1378 1377 1376 1374 1372 1371 1370 1369 1368 1368 1367 1367 1366 1366 1366 1365 1365 1365 1365 1365 1366 1365 1365 1365 1366 1367 1368 1369 1370 1371 1371 1371 1370 1370 1369 1369 1369 1370 1371
1424 1423 1422 1420 1418 1417 1415 1413 1412 1410 1408 1406 1404 1402 1401 1399 1397 1396 1394 1393 1392 1390 1388 1387 1385 1383 1381 1379 1378 1376 1375 1373 1372 1370 1368 1367 1366 1365 1364 1364 1363 1362 1362 1362 1362 1362 1361 1361 1361 1362 1362 1362 1362 1362 1363 1364 1365 1366 1367 1368 1368 1368 1368 1368 1368 1367 1367 1368 1369
1422 1420 1419 1417 1415 1414 1412 1410 1408 1407 1405 1403 1401 1399 1397 1396 1394 1392 1391 1389 1388 1387 1385 1383 1382 1380 1377 1376 1374 1372 1371 1369 1367 1366 1364 1363 1362 1360 1360 1359 1359 1358 1357 1357 1357 1357 1358 1358 1358 1358 1358 1359 1359 1360 1360 1361 1362 1363 1364 1365 1365 1366 1366 1366 1366 1366 1366 1367 1368
1419 1417 1416 1414 1412 1411 1409 1407 1405 1403 1402 1400 1398 1396 1394 1392 1391 1389 1387 1386 1384 1383 1381 1380 1378 1376 1374 1372 1370 1369 1367 1365 1363 1361 1360 1358 1357 1356 1356 1355 1355 1354 1353 1352 1353 1353 1354 1354 1355 1355 1355 1355 1356 1357 1357 1358 1359 1360 1361 1362 1362 1363 1363 1363 1363 1364 1364 1365 1366
1416 1414 1412 1411 1409 1407 1406 1404 1402 1401 1399 1397 1395 1393 1391 1389 1388 1386 1384 1382 1381 1379 1377 1376 1374 1372 1370 1368 1366 1365 1363 1361 1359 1357 1356 1354 1353 1353 1352 1351 1350 1349 1349 1348 1348 1349 1349 1350 1351 1351 1351 1352 1353 1354 1355 1356 1356 1357 1358 1358 1359 1359 1360 1360 1361 1361 1362 1363 1364
1412 1411 1409 1407 1406 1404 1403 1401 1399 1397 1396 1394 1392 1390 1388 1386 1384 1382 1381 1379 1377 1375 1374 1372 1370 1368 1366 1364 1362 1360 1359 1357 1355 1353 1352 1350 1349 1348 1347 1347 1346 1345 1345 1344 1344 1344 1345 1346 1346 1347 1347 1348 1349 1351 1352 1352 1354 1355 1355 1355 1356 1357 1357 1357 1357 1358 1359 1361 1363
1409 1407 1406 1404 1403 1401 1399 1398 1396 1394 1392 1391 1389 1387 1385 1383 1381 1379 1377 1375 1373 1372 1370 1368 1367 1365 1362 1360 1358 1356 1354 1353 1351 1350 1348 1346 1345 1343 1342 1342 1341 1341 1340 1340 1340 1340 1341 1342 1342 1342 1343 1344 1345 1346 1347 1349 1351 1352 1353 1353 1354 1355 1355 1355 1354 1355 1357 1359 1362
1406 1404 1403 1401 1399 1398 1396 1394 1393 1391 1389 1387 1386 1384 1382 1380 1378 1376 1374 1372 1370 1368 1366 1364 1362 1361 1359 1357 1354 1352 1350 1349 1347 1346 1344 1342 1341 1340 1338 1337 1337 1336 1336 1336 1336 1336 1337 1337 1338 1339 1339 1340 1341 1342 1344 1346 1348 1349 1350 1351 1352 1353 1354 1353 1352 1353 1355 1357 1360
1403 1401 1400 1398 1396 1394 1393 1391 1389 1387 1386 1384 1382 1380 1378 1377 1374 1372 1370 1368 1366 1364 1362 1361 1359 1357 1355 1352 1350 1348 1346 1345 1343 1342 1340 1338 1336 1335 1334 1333 1332 1332 1331 1332 1332 1332 1332 1333 1334 1335 1336 1337 1338 1339 1341 1343 1345 1347 1348 1349 1351 1352 1352 1352 1352 1352 1352 1355 1357
1400 1398 1397 1395 1393 1391 1389 1387 1386 1384 1382 1381 1379 1377 1375 1373 1371 1369 1367 1365 1363 1361 1359 1357 1355 1353 1351 1348 1346 1344 1342 1340 1339 1337 1336 1334 1332 1330 1329 1328 1328 1327 1327 1327 1327 1327 1328 1329 1330 1331 1332 1334 1335 1337 1339 1341 1342 1344 1346 1347 1349 1350 1350 1350 1350 1350 1351 1354 1356
1397 1395 1393 1392 1390 1388 1386 1384 1383 1381 1379 1377 1376 1373 1372 1369 1367 1365 1363 1361 1359 1357 1355 1353 1351 1349 1346 1344 1342 1340 1338 1336 1334 1333 1332 1330 1328 1327 1325 1324 1323 1322 1322 1323 1323 1323 1324 1325 1327 1328 1329 1331 1333 1335 1337 1339 1340 1342 1344 1346 1347 1348 1348 1349 1349 1349 1350 1352 1355
1394 1392 1391 1388 1387 1384 1383 1381 1379 1378 1376 1374 1372 1370 1368 1366 1363 1362 1359 1357 1355 1353 1351 1349 1347 1344 1342 1340 1338 1336 1334 1332 1330 1329 1327 1326 1324 1323 1322 1321 1320 1319 1318 1318 1319 1319 1320 1322 1323 1325 1327 1329 1332 1334 1336 1337 1339 1341 1343 1344 1346 1347 1347 1348 1348 1349 1350 1352 1355
1392 1390 1387 1386 1383 1381 1380 1378 1376 1374 1372 1370 1368 1366 1364 1362 1359 1357 1355 1353 1352 1349 1347 1345 1342 1340 1338 1336 1334 1332 1330 1328 1326 1324 1323 1322 1321 1320 1318 1317 1317 1317 1316 1316 1316 1317 1318 1320 1321 1323 1326 1328 1331 1333 1335 1337 1338 1340 1342 1344 1346 1347 1347 1347 1347 1348 1350 1352 1355
1388 1387 1385 1382 1381 1378 1376 1374 1372 1371 1368 1367 1364 1362 1360 1358 1356 1353 1351 1349 1347 1345 1343 1340 1338 1336 1334 1332 1330 1327 1325 1323 1322 1321 1319 1318 1317 1317 1316 1315 1315 1314 1313 1313 1315 1316 1317 1318 1320 1322 1325 1327 1330 1332 1334 1336 1338 1340 1342 1344 1346 1347 1347 1347 1347 1348 1350 1352 1355
1386 1384 1382 1380 1377 1375 1373 1371 1369 1367 1365 1363 1360 1358 1356 1354 1352 1349 1347 1345 1343 1341 1338 1336 1334 1332 1330 1327 1326 1324 1322 1320 1318 1317 1316 1315 1314 1313 1313 1314 1313 1312 1311 1312 1313 1315 1316 1317 1319 1321 1323 1326 1329 1331 1333 1336 1338 1340 1342 1343 1345 1347 1347 1347 1348 1349 1351 1352 1354
1383 1381 1379 1377 1374 1372 1370 1368 1366 1364 1362 1359 1357 1354 1352 1350 1347 1345 1343 1341 1339 1336 1334 1331 1330 1328 1326 1323 1322 1320 1318 1317 1315 1313 1312 1312 1311 1311 1312 1312 1311 1310 1310 1311 1312 1313 1314 1316 1318 1320 1322 1325 1328 1331 1333 1335 1337 1339 1341 1343 1345 1346 1347 1348 1349 1350 1351 1353 1355
1381 1378 1376 1374 1372 1369 1367 1365 1363 1360 1358 1355 1353 1350 1348 1346 1343 1341 1339 1337 1335 1332 1329 1327 1326 1323 1322 1320 1318 1316 1315 1313 1312 1311 1309 1308 1308 1309 1309 1309 1308 1308 1308 1309 1310 1312 1314 1316 1317 1320 1322 1325 1327 1330 1332 1335 1337 1339 1341 1343 1345 1347 1348 1350 1350 1351 1352 1354 1356
1378 1376 1374 1371 1369 1366 1364 1362 1360 1357 1354 1352 1349 1347 1344 1342 1339 1337 1335 1334 1332 1329 1326 1323 1321 1319 1317 1316 1314 1312 1311 1310 1309 1307 1306 1304 1305 1306 1307 1306 1306 1306 1307 1308 1309 1311 1313 1315 1317 1319 1322 1324 1327 1329 1332 1335 1337 1339 1342 1344 1346 1348 1350 1351 1352 1352 1353 1355 1357
1375 1373 1371 1369 1366 1363 1361 1359 1356 1353 1351 1348 1345 1343 1340 1338 1336 1333 1331 1330 1328 1325 1322 1320 1317 1315 1313 1312 1311 1309 1307 1306 1305 1304 1302 1301 1302 1303 1303 1303 1304 1305 1306 1307 1308 1311 1313 1315 1317 1319 1322 1324 1326 1329 1332 1334 1337 1340 1342 1344 1347 1349 1351 1352 1352 1353 1355 1357 1359
1372 1371 1368 1366 1363 1361 1358 1355 1353 1350 1348 1345 1342 1339 1337 1334 1332 1329 1327 1326 1324 1322 1319 1316 1314 1312 1310 1309 1308 1306 1304 1302 1301 1300 1300 1300 1300 1300 1300 1301 1302 1303 1305 1306 1308 1310 1312 1314 1317 1319 1321 1324 1326 1329 1331 1334 1337 1340 1342 1345 1348 1350 1352 1352 1353 1354 1356 1358 1361
1370 1368 1365 1363 1360 1358 1355 1352 1349 1347 1344 1342 1339 1336 1333 1330 1328 1326 1324 1322 1320 1318 1316 1313 1310 1308 1307 1306 1305 1303 1301 1299 1298 1298 1298 1298 1298 1297 1298 1299 1301 1302 1304 1306 1308 1309 1312 1314 1316 1319 1321 1323 1326 1328 1331 1334 1337 1340 1343 1346 1348 1350 1351 1352 1353 1355 1357 1359 1362
Wind_Speed
21 21 21 21 22 22 23 23 22 22 22 23 23 23 24 24 25 26 26 26 27 28 28 29 30 31 32 33 33 32 32 31 30 30 30 31 33 34 35 36 37 40 42 45 45 45 44 42 41 41 41 42 43 44 45 46 46 45 43 42 42 43 43 42 41 42 42 42 40
21 21 21 22 23 23 23 24 24 24 24 24 24 24 25 25 26 26 27 27 27 28 29 29 30 31 32 33 34 34 34 34 33 32 32 33 34 36 37 38 39 40 42 44 46 47 47 45 44 42 42 42 42 43 44 46 46 46 45 43 42 43 44 44 43 43 42 42 41
22 22 22 22 23 23 24 24 25 25 25 25 25 25 26 26 26 26 27 27 28 28 29 30 30 31 32 33 33 34 34 35 35 35 35 35 35 37 39 40 42 43 44 45 46 48 49 49 48 47 46 44 43 42 43 45 46 46 46 44 43 43 44 45 44 44 43 42 40
22 22 22 23 24 24 25 26 26 26 26 26 27 27 27 27 27 27 28 28 29 29 29 30 31 32 33 34 34 35 35 36 36 37 37 37 37 37 39 41 43 45 46 47 48 49 50 51 51 51 49 47 44 43 44 45 46 47 47 45 44 44 44 44 45 44 43 43 41
22 23 23 24 25 25 26 27 27 27 27 28 28 28 28 28 28 29 29 29 30 30 30 31 32 33 34 35 36 36 37 37 37 37 38 39 39 39 39 41 43 45 47 48 49 49 50 51 53 53 51 49 46 44 43 44 45 46 46 45 44 44 44 44 45 45 44 44 43
23 24 24 25 26 26 27 27 28 28 28 28 29 29 29 29 29 29 30 30 31 32 32 33 34 34 35 36 36 37 37 37 37 37 38 39 39 40 41 42 43 45 47 48 49 49 49 50 52 53 52 50 48 45 44 43 44 45 45 44 44 44 45 45 46 47 47 47 46
24 25 26 26 27 27 28 28 28 28 29 29 29 29 29 30 30 30 31 31 32 32 33 33 34 34 35 35 36 37 37 38 38 38 39 39 40 41 43 44 45 45 46 48 49 49 49 49 50 51 51 51 49 47 44 42 43 44 45 45 45 45 46 48 49 50 50 50 50
25 26 27 28 28 28 28 28 28 29 29 29 29 30 30 30 31 31 31 31 31 31 32 32 33 33 34 35 36 37 38 39 39 40 40 41 41 42 43 44 44 45 45 46 47 48 48 48 47 48 49 49 49 47 45 43 42 43 45 47 47 46 46 48 49 50 51 52 51
27 27 28 29 29 29 29 29 29 29 29 30 30 31 31 31 31 31 31 30 30 30 31 32 32 33 34 35 36 37 38 38 39 40 40 41 41 41 41 41 42 43 43 44 44 45 47 47 46 46 46 48 49 49 47 44 43 43 45 48 50 49 48 47 47 48 50 51 51
28 28 29 29 29 29 29 29 29 29 30 30 31 31 31 31 31 31 30 30 30 31 31 32 33 33 34 35 35 36 36 37 38 38 39 39 39 40 40 40 40 41 41 42 42 43 45 46 45 45 45 47 49 49 48 46 43 43 44 46 50 52 51 49 47 48 49 50 49
29 29 29 29 29 29 29 30 30 30 30 31 31 31 31 31 31 31 30 30 31 31 32 33 33 34 34 35 35 35 35 35 36 36 36 37 37 38 40 41 40 40 40 41 41 43 45 46 45 45 46 47 49 49 48 46 44 43 43 45 48 50 52 51 49 48 48 49 49
30 30 30 30 30 30 30 30 30 30 30 31 31 31 31 31 31 31 31 31 32 33 34 34 35 35 36 36 36 35 35 35 35 36 36 36 37 37 39 40 40 40 40 41 42 43 44 45 45 45 46 48 49 49 48 46 45 44 45 46 47 48 50 52 52 50 49 49 50
30 30 30 30 30 31 31 31 31 31 31 31 31 31 31 31 31 31 32 32 33 35 36 37 38 38 38 38 37 37 36 36 36 36 37 38 38 38 39 39 40 40 41 42 43 44 45 45 45 45 47 49 50 49 48 46 45 45 46 46 48 48 49 52 53 52 51 51 52
31 31 31 31 31 31 31 32 31 31 31 31 31 31 32 32 32 32 32 34 35 37 38 40 41 41 41 40 40 39 39 39 38 38 38 39 40 40 40 40 40 40 41 42 43 44 45 45 45 46 48 50 51 50 48 47 45 45 47 48 49 49 49 51 53 53 53 53 53
31 31 32 32 32 32 32 32 32 32 31 32 32 32 32 32 33 33 34 36 37 38 40 41 43 43 43 43 42 42 41 40 39 38 39 39 41 42 43 43 41 40 40 41 43 44 45 45 45 46 48 50 50 49 48 47 45 46 47 48 49 50 50 50 52 54 55 55 55
32 32 33 33 33 33 33 33 32 32 32 33 33 33 33 34 34 34 36 38 39 39 40 42 44 45 45 44 43 43 42 41 40 39 39 39 41 42 44 45 44 43 42 42 43 44 44 44 44 46 48 49 49 48 47 46 45 45 46 48 49 50 50 51 52 53 55 56 57
33 33 34 34 34 34 34 33 33 33 33 34 34 35 35 35 35 36 37 39 40 41 43 45 46 46 46 45 45 44 43 41 41 40 40 40 40 41 42 44 45 45 44 43 43 43 43 43 44 45 47 48 48 47 46 45 44 45 46 47 48 50 51 52 52 53 54 56 57
34 34 35 35 34 34 34 34 34 35 35 35 35 36 36 37 37 38 39 40 41 42 45 47 48 48 47 46 46 44 42 41 41 41 41 41 41 40 41 43 44 45 45 44 43 43 43 42 43 44 46 47 47 46 45 44 44 44 45 47 48 49 51 52 53 54 54 56 58
35 35 35 35 35 35 35 35 35 35 36 36 37 37 38 39 39 39 40 41 41 42 44 46 47 48 47 46 45 44 43 42 41 41 42 42 41 41 41 42 43 44 45 45 44 44 43 42 42 44 45 46 46 45 45 44 43 44 45 47 48 49 50 52 53 54 55 57 58
36 36 36 36 35 35 35 35 36 36 37 38 38 39 40 40 40 40 41 41 42 43 44 45 46 46 46 46 45 45 44 42 42 42 42 43 42 42 41 41 42 43 45 45 46 45 44 42 42 43 45 45 45 44 44 43 43 44 45 46 47 49 50 51 52 54 55 56 57
37 37 36 36 36 36 36 36 37 38 39 39 40 41 41 41 41 41 42 43 43 43 43 43 44 45 45 45 45 45 44 43 43 44 44 43 43 43 43 42 42 43 44 45 45 45 43 42 42 43 44 45 45 44 44 43 43 43 45 46 47 48 49 50 51 52 53 54 55
37 37 37 36 36 36 36 37 38 39 40 40 41 41 41 42 42 42 42 43 43 42 41 41 42 43 45 46 45 45 45 45 46 46 46 45 44 44 44 43 43 43 43 44 44 43 42 41 42 42 43 44 44 44 44 43 43 43 44 46 47 48 48 49 50 51 52 52 52
37 37 37 37 37 37 38 38 39 40 40 40 40 40 40 41 41 41 42 42 43 41 40 40 41 43 45 46 47 47 47 48 48 48 47 46 45 45 45 44 44 43 44 44 43 42 41 41 41 42 43 44 44 43 43 43 43 43 45 46 47 47 48 48 49 49 50 50 50
38 38 38 37 38 39 39 40 40 40 39 39 39 39 40 40 41 41 42 42 42 42 42 41 42 43 45 47 47 48 48 48 48 48 47 46 45 45 45 45 45 44 44 43 43 42 42 41 41 42 43 44 44 43 42 42 43 44 45 47 47 48 48 47 48 48 48 48 48
39 39 39 39 40 40 40 40 40 40 39 39 39 39 40 40 40 41 42 42 43 43 43 43 43 44 45 47 48 48 49 48 48 47 47 46 45 44 44 44 45 45 44 43 42 42 42 42 42 44 45 45 44 43 42 42 43 44 46 47 48 48 48 47 47 47 47 47 47
40 40 40 40 40 40 40 40 40 40 39 39 39 39 39 39 40 41 42 42 43 44 44 44 44 44 46 47 48 48 48 48 48 47 46 46 45 44 43 43 43 43 43 42 42 42 42 43 44 46 47 47 46 44 43 43 43 44 45 47 48 48 48 47 47 46 46 46 46
41 41 40 40 40 40 40 40 40 40 39 39 39 39 39 39 40 41 42 43 44 44 44 44 44 44 46 47 47 48 48 48 48 47 46 46 45 45 44 43 43 42 42 41 41 41 42 43 46 48 49 49 48 46 45 44 44 44 45 45 46 47 48 48 47 46 45 45 45
41 41 41 40 41 41 41 41 40 40 40 40 39 39 39 40 41 41 42 43 43 44 44 44 44 45 45 46 47 48 48 48 47 46 46 46 45 45 44 44 43 43 42 41 41 41 43 45 47 49 50 50 49 48 47 46 45 45 45 45 45 46 47 47 47 46 45 45 45
41 41 41 41 41 41 41 40 40 40 40 40 39 40 40 40 41 41 42 42 43 43 44 44 44 45 46 47 48 49 49 49 47 46 46 46 46 44 43 42 43 44 44 43 42 43 44 46 48 49 50 50 49 48 47 46 46 46 45 45 45 45 46 46 46 46 46 46 45
41 41 40 40 40 40 40 39 39 39 39 39 39 39 39 40 40 41 41 42 43 43 44 45 45 46 47 48 49 50 50 49 47 46 46 46 45 43 41 41 41 42 43 44 44 44 45 47 49 50 50 49 49 48 47 46 46 46 45 45 44 45 45 45 46 46 46 46 46
40 40 39 39 39 39 39 39 39 39 39 39 39 39 39 40 40 40 41 42 43 44 45 46 47 47 49 49 50 49 49 48 47 46 45 44 43 41 40 39 39 40 41 42 42 43 45 47 48 49 49 48 47 47 46 46 46 46 45 44 44 44 45 45 46 46 46 46 45
39 39 38 38 38 38 39 39 39 39 39 39 40 40 40 40 41 42 42 43 44 45 46 47 47 48 49 49 49 49 48 47 46 45 43 42 40 39 37 37 38 39 38 38 38 40 42 45 47 47 47 46 45 45 45 45 45 45 44 44 44 44 44 45 45 46 46 46 45
38 38 38 37 37 38 38 39 39 39 40 40 41 41 41 41 42 42 43 44 45 45 46 47 47 48 49 50 50 49 48 46 45 43 41 40 38 36 36 37 37 36 35 34 34 36 39 42 44 44 44 43 43 43 43 44 44 43 43 42 43 43 43 44 45 45 46 45 45
37 37 37 37 37 38 38 39 40 40 41 41 42 42 42 42 43 43 44 45 46 46 47 47 48 48 49 49 49 48 47 45 43 42 40 38 36 36 36 35 34 33 32 31 31 33 37 41 42 42 42 42 42 42 42 43 42 42 41 41 41 41 42 43 44 45 45 46 45
36 37 37 37 38 38 39 39 40 40 41 42 42 43 43 43 44 45 46 47 47 47 47 47 48 48 48 48 47 47 46 45 43 41 39 37 37 37 35 31 30 30 29 29 30 33 37 41 42 42 42 42 41 41 42 42 42 41 41 41 40 40 41 42 44 45 46 46 46
36 36 37 38 39 39 39 40 40 40 41 42 43 44 45 45 46 46 46 46 46 46 46 47 47 47 47 47 46 45 44 43 42 41 39 37 38 37 33 29 28 28 28 29 30 34 38 42 43 43 43 42 42 42 42 42 41 41 41 41 40 40 41 43 44 45 46 46 46
36 36 37 38 39 39 39 40 40 41 42 43 44 45 45 45 46 46 45 45 44 44 45 46 46 47 47 46 45 43 42 41 41 41 39 38 38 34 29 28 28 29 29 30 32 35 39 43 44 43 43 42 42 42 42 42 41 41 41 40 40 40 41 42 43 44 45 46 46
36 36 36 38 39 39 40 40 41 42 43 44 44 45 45 45 44 45 45 44 43 44 45 46 46 46 45 44 43 41 40 40 40 40 40 38 35 30 28 30 30 30 31 32 32 35 39 43 44 43 43 43 43 43 43 42 42 41 40 40 40 40 41 42 42 43 44 45 46
36 36 37 38 39 40 40 41 41 43 43 43 44 45 45 45 45 45 44 43 43 43 44 45 45 45 43 42 41 41 41 40 40 40 39 36 30 28 30 32 32 32 32 32 33 37 41 44 44 44 44 44 44 44 44 43 42 41 40 39 39 39 39 39 40 41 42 44 45
37 37 38 38 39 40 41 41 42 43 43 43 44 45 45 45 45 44 44 44 43 43 44 45 45 44 43 42 42 42 42 42 41 39 35 30 26 28 32 34 33 33 33 33 35 39 43 45 45 45 45 45 45 45 44 44 42 41 40 39 38 36 35 35 37 39 41 43 44
38 38 38 39 40 41 41 42 43 43 44 44 44 44 44 44 44 44 44 44 44 44 44 45 45 44 43 42 42 43 44 44 42 37 29 24 26 30 33 34 34 34 34 36 39 42 45 46 46 46 46 46 46 45 45 44 42 40 38 36 35 33 32 33 35 37 39 41 42
Wind_Direction
309 309 308 307 307 307 307 307 306 305 304 303 302 300 299 298 296 295 294 293 292 291 291 290 290 290 290 290 290 289 288 287 284 283 282 283 284 284 283 281 279 278 277 277 276 275 274 272 271 272 272 271 269 266 263 261 259 254 246 237 228 222 220 221 223 223 221 220 219
308 307 306 305 306 306 306 306 305 304 303 302 301 300 299 298 297 296 294 292 291 290 290 289 289 288 289 289 290 290 289 288 286 284 282 281 282 282 283 282 281 279 277 276 276 275 274 272 273 274 276 276 273 269 264 261 259 257 253 245 234 226 222 221 222 222 222 221 219
306 306 305 305 305 305 305 304 304 303 302 302 301 300 299 299 298 297 295 294 293 292 290 290 289 288 288 288 289 289 288 288 287 286 284 282 282 281 282 282 281 280 278 277 275 275 274 273 273 275 276 278 277 273 267 261 259 258 256 251 240 231 225 222 221 221 221 220 219
305 305 305 306 305 305 304 303 302 302 301 301 300 300 299 299 298 298 297 297 296 294 293 292 290 289 288 288 287 287 286 286 286 285 284 284 283 282 281 281 280 280 279 278 277 275 275 275 275 275 275 276 277 275 271 264 260 257 256 253 245 235 228 224 221 220 219 219 218
305 305 306 306 305 305 303 302 301 301 300 300 299 299 299 298 299 298 298 298 297 296 295 294 292 290 288 287 286 286 286 285 284 283 283 283 282 282 282 281 281 281 281 280 279 277 276 276 276 275 274 274 275 275 272 268 263 259 256 253 247 239 231 226 222 219 218 218 217
306 306 306 306 306 304 303 302 301 300 299 299 298 297 297 297 297 297 297 297 297 297 297 296 294 293 291 289 288 287 287 286 284 283 282 281 281 281 281 282 282 283 283 283 282 280 278 277 276 275 274 273 274 274 273 271 267 263 258 253 248 241 235 229 224 221 219 218 217
307 307 307 307 306 305 303 302 301 300 299 298 297 296 295 295 295 295 295 295 296 297 297 297 296 295 294 292 291 289 288 287 285 284 282 281 280 279 280 281 282 283 284 284 284 283 281 279 277 276 275 274 273 273 274 273 272 268 262 255 249 243 238 234 229 224 221 219 217
307 307 306 306 305 304 303 302 301 300 298 297 295 295 294 294 293 293 294 294 295 296 297 297 297 296 295 293 291 290 288 287 286 284 283 281 280 279 279 280 282 283 283 284 284 284 283 281 279 278 277 276 274 273 273 275 275 272 267 259 252 245 239 235 230 226 223 221 219
307 306 305 305 304 303 303 302 301 299 298 296 295 294 293 293 292 292 292 293 294 295 295 295 295 295 294 293 291 290 289 288 287 286 284 282 280 279 279 279 280 281 281 281 282 282 283 282 281 279 278 278 277 275 275 276 276 274 269 262 255 248 241 235 230 227 226 225 220
306 305 304 304 303 303 302 301 300 299 297 296 295 294 293 292 291 291 291 291 292 293 293 294 295 295 294 293 292 291 290 289 289 287 285 282 280 279 278 278 278 277 278 278 279 280 281 282 281 280 279 278 278 277 278 278 277 274 269 263 256 250 243 237 231 229 228 225 218
305 304 303 303 302 302 301 300 299 298 297 296 295 294 293 292 291 290 290 290 291 292 292 294 295 295 295 294 293 292 291 290 289 288 287 285 282 280 278 277 276 275 275 276 277 279 280 281 281 279 278 277 276 277 277 278 277 274 267 261 255 249 243 237 233 229 225 220 213
304 304 302 302 301 301 300 300 299 298 297 296 295 294 293 292 291 290 290 290 290 290 292 294 296 296 296 296 295 294 292 290 289 288 287 287 285 283 279 277 275 274 274 274 275 277 279 280 280 278 276 274 274 274 275 276 275 272 266 259 253 246 240 236 233 228 222 215 210
304 303 302 301 301 300 299 299 298 298 297 296 295 294 293 292 291 290 289 289 289 290 292 294 296 297 298 298 297 296 294 291 289 287 285 284 284 284 281 278 276 274 273 273 273 275 277 279 279 277 274 272 271 271 272 272 272 268 262 255 251 244 238 234 231 227 221 214 210
303 302 301 301 300 300 299 299 298 298 297 296 296 295 294 293 292 290 289 288 288 289 291 294 296 298 299 299 299 297 296 293 290 287 283 281 280 279 279 277 276 274 272 272 272 273 276 278 278 276 272 269 268 268 269 270 268 264 258 252 249 244 238 232 228 224 219 213 210
302 301 301 300 300 299 298 298 298 297 297 296 296 295 294 293 292 290 288 288 288 289 291 293 295 297 299 300 300 299 298 297 293 289 285 281 277 275 273 274 275 274 273 272 271 272 274 277 276 273 269 265 264 265 266 267 266 261 254 247 244 242 238 230 226 221 215 212 209
301 300 300 299 299 298 298 297 297 297 296 296 296 295 294 293 292 290 288 288 288 289 291 292 294 296 298 300 301 301 301 300 297 293 289 284 279 275 272 271 272 273 274 273 272 272 274 275 274 270 265 261 260 261 263 263 262 257 249 242 238 236 235 231 225 219 213 209 208
300 300 299 298 298 297 297 296 296 296 296 295 295 294 294 292 291 290 288 288 288 289 290 291 293 296 298 300 301 302 302 300 298 295 291 287 283 279 275 272 271 272 273 273 272 273 274 275 272 267 262 258 257 258 259 259 257 252 244 236 231 229 228 228 225 219 213 208 206
300 299 298 298 297 296 296 296 296 295 295 295 295 294 293 291 290 289 288 288 288 289 290 291 293 295 297 299 301 301 300 298 297 295 292 289 286 282 278 274 272 272 272 273 272 273 274 274 270 265 259 255 254 254 255 254 252 247 240 231 225 221 221 221 220 218 214 209 206
299 298 297 297 296 296 296 296 296 295 295 295 294 293 292 291 290 289 288 288 288 288 289 291 293 295 297 298 299 300 299 297 295 293 291 290 287 284 280 276 273 271 271 272 273 273 273 271 267 261 255 251 250 249 249 247 245 241 234 227 221 216 214 213 213 213 211 208 205
299 298 297 296 296 296 296 295 295 295 295 294 294 292 292 291 290 289 289 288 289 289 290 291 292 294 296 297 298 299 299 297 295 292 290 288 286 284 281 277 274 271 270 271 272 272 271 268 263 257 252 247 246 244 242 241 239 235 230 223 218 213 210 208 206 205 204 203 201
298 297 297 296 296 296 296 296 295 295 295 294 293 292 292 291 290 290 289 289 290 291 291 291 291 293 294 295 296 297 296 295 294 293 290 287 284 282 281 278 275 271 270 270 271 271 268 264 259 253 247 243 241 239 237 234 232 229 225 220 215 211 208 204 201 199 197 196 195
298 297 297 296 296 296 296 296 296 295 295 294 293 292 292 291 291 290 290 291 292 292 292 291 290 291 292 293 294 294 294 295 295 294 292 288 284 282 281 280 277 273 269 267 268 268 265 260 254 248 242 239 237 234 232 229 226 224 220 216 213 209 205 202 199 197 195 193 192
298 297 297 296 296 296 296 296 296 296 295 294 293 293 292 292 291 291 291 292 292 292 291 290 289 290 290 292 292 293 294 294 295 294 293 290 286 283 281 280 278 275 270 265 264 263 262 257 249 242 237 235 232 229 226 223 221 218 215 212 209 206 203 200 197 195 193 192 191
297 297 296 296 296 296 296 296 296 296 295 294 293 293 292 292 292 292 292 291 291 291 290 290 289 289 289 290 291 292 293 294 294 293 292 290 287 283 280 278 277 276 273 267 262 260 258 253 245 237 233 231 228 224 220 218 216 214 211 209 206 203 200 198 196 194 192 190 190
297 296 296 296 296 296 296 296 296 296 295 294 293 293 292 292 292 292 291 291 290 290 290 290 289 289 289 290 291 292 293 293 292 292 291 289 286 282 279 276 275 274 272 269 263 259 255 250 242 235 231 228 224 219 215 213 212 210 208 206 203 200 197 195 193 191 190 189 188
296 296 296 296 296 296 296 296 296 295 295 294 294 293 292 292 292 291 291 291 290 290 290 290 290 290 290 290 291 292 293 293 292 292 290 289 286 283 279 276 273 272 270 268 264 259 254 248 240 234 229 225 220 215 211 209 208 207 205 203 200 197 194 190 187 186 186 186 186
297 296 296 296 296 296 296 296 296 295 295 294 294 293 292 292 291 291 291 290 291 291 291 290 290 290 290 291 291 292 292 293 293 292 290 288 286 284 281 278 275 273 271 268 264 259 253 246 238 232 227 222 217 212 209 208 206 204 202 198 196 194 191 188 185 184 183 183 183
297 297 297 297 297 296 296 296 296 295 295 295 294 293 293 292 291 291 291 291 291 291 291 291 290 290 290 290 291 291 292 293 292 291 289 287 285 283 281 279 277 275 273 270 265 258 251 244 236 229 223 218 214 211 209 207 205 202 199 195 193 191 190 188 186 182 180 180 181
298 298 298 298 297 297 297 296 296 296 295 295 294 294 293 292 291 291 291 291 291 290 290 290 290 290 290 290 291 292 292 292 292 290 289 288 286 283 280 277 276 276 274 271 264 256 249 241 232 225 219 215 212 209 208 206 203 200 196 193 190 189 187 185 183 181 179 179 180
299 299 299 299 298 298 297 297 296 296 296 295 295 294 293 292 291 291 291 290 290 290 290 290 290 290 289 290 291 292 292 293 292 291 290 289 287 284 280 277 276 275 273 267 259 251 244 236 227 220 215 212 209 207 204 202 199 196 192 189 187 186 184 182 180 179 179 179 179
300 300 300 300 299 299 298 297 297 297 296 296 295 294 293 292 291 291 290 290 290 290 290 290 290 290 290 291 291 292 292 293 293 292 291 289 287 284 281 278 278 276 271 261 251 242 235 228 221 215 212 209 206 203 199 196 193 191 188 185 184 183 182 180 179 179 179 178 178
301 301 301 301 300 300 299 298 298 297 297 296 295 294 293 292 292 291 291 291 291 291 291 291 290 290 291 292 292 293 293 293 293 292 291 289 287 285 283 282 281 276 266 252 239 230 224 218 213 209 207 204 200 196 192 189 187 185 183 181 181 180 179 178 178 178 178 178 178
302 302 302 302 301 300 300 299 298 298 297 296 295 295 294 293 293 292 292 292 291 291 291 291 291 290 291 292 293 294 295 295 294 293 292 290 288 287 287 284 278 267 255 240 228 219 212 207 204 201 198 195 191 187 184 182 180 179 178 177 177 176 176 176 176 176 177 177 177
304 303 303 303 302 301 301 300 299 299 298 297 296 295 295 294 293 293 293 293 293 292 292 291 291 291 292 293 294 295 295 295 295 294 292 291 290 291 288 280 266 252 240 228 218 209 202 198 194 191 187 185 182 180 178 177 175 174 173 172 171 171 171 172 172 173 173 173 173
305 305 304 304 303 302 302 301 300 300 299 298 297 296 296 295 294 294 294 294 294 293 293 292 292 292 293 293 294 295 295 295 295 294 293 292 293 293 286 270 250 236 226 217 209 202 196 191 186 183 180 179 177 176 174 173 171 170 168 167 166 166 166 167 167 168 169 169 169
306 306 306 304 304 303 303 302 301 300 299 298 297 297 296 296 296 295 295 295 295 294 293 292 292 292 293 294 294 295 295 295 295 295 295 294 295 291 278 254 233 220 213 207 203 198 192 186 182 179 177 176 174 173 171 170 168 166 165 164 163 163 163 164 164 164 165 166 167
307 307 306 305 304 304 303 302 301 301 300 299 298 298 297 297 296 296 296 295 294 293 292 292 292 293 294 295 295 295 295 295 295 296 297 296 295 285 264 235 219 210 205 202 200 196 190 184 180 177 175 173 172 170 168 167 165 164 163 162 162 162 162 162 162 163 164 165 165
308 308 307 306 305 304 303 303 302 301 300 299 299 298 298 297 296 296 296 295 294 293 293 293 294 295 295 296 296 296 296 296 297 298 299 298 291 272 243 220 209 204 202 200 198 193 188 182 178 176 175 172 170 168 166 164 162 161 161 160 161 161 161 161 161 162 163 165 165
308 308 307 306 305 304 304 303 302 301 301 300 299 299 299 298 297 297 297 296 295 294 294 295 296 296 297 297 297 297 298 299 301 302 301 296 280 251 225 211 204 200 199 198 195 190 185 180 177 176 174 172 170 168 165 163 161 159 159 158 158 159 159 159 159 161 163 165 165
308 308 308 307 306 305 304 304 303 302 301 301 300 300 299 299 298 298 298 298 297 296 296 296 297 298 298 298 298 298 298 301 303 304 299 286 257 229 214 205 200 197 195 194 191 186 181 177 175 174 173 171 169 166 164 161 159 157 156 156 156 155 155 156 158 161 163 165 165
309 309 308 308 307 306 305 305 304 303 303 302 301 301 301 300 300 300 299 299 299 298 298 298 298 298 298 298 297 297 298 300 302 300 288 260 230 214 206 202 197 193 190 188 184 180 176 173 172 171 170 168 166 163 161 159 157 155 154 153 152 151 151 154 158 162 164 165 166